Wind_Speed
12 11 11 10 9 8 7 8 8 7 8 8 9 11 12 13 12 11 9 8 9 9 11 10 11 14 16 17 17 19 19 19 18 16 13 15 1 16 14 12 17 14 7 8 9 13 12
12 11 10 9 8 7 6 5 6 7 7 8 10 11 11 10 9 9 9 8 9 9 11 11 12 14 16 20 19 19 19 19 17 17 16 13 19 14 17 10 12 16 15 10 13 13 13
9 9 9 9 8 7 6 6 6 7 8 8 9 9 9 9 9 8 9 8 9 10 11 17 16 13 24 20 20 20 19 18 17 16 11 17 16 15 19 19 14 20 14 15 17 13 7
4 5 5 6 7 8 8 7 6 6 7 8 8 9 10 9 8 8 8 9 9 12 15 16 16 24 17 17 16 21 20 19 18 15 14 15 18 16 16 22 21 20 16 16 12 16 8
5 4 4 4 4 5 6 6 7 7 7 8 8 8 10 11 11 10 11 10 10 11 12 14 15 18 18 15 17 23 22 20 15 12 10 13 14 13 17 4 16 12 8 13 18 13 7
10 9 8 7 6 5 5 5 5 6 7 8 8 9 9 10 12 12 12 12 12 13 14 16 17 17 17 15 16 19 20 16 12 12 12 12 13 14 15 10 5 10 12 3 7 7 10
16 15 14 12 11 9 8 7 6 6 6 6 6 7 7 8 9 10 11 10 10 10 12 14 16 15 13 15 17 17 16 14 12 11 11 13 10 6 10 5 11 12 11 2 18 17 9
21 20 19 18 17 15 14 12 10 9 8 7 6 6 6 6 7 8 9 8 9 9 9 9 12 13 12 12 12 11 11 11 10 10 11 9 7 1 4 11 10 13 5 10 9 19 10
28 26 24 23 23 21 20 18 16 14 12 11 10 9 8 7 6 6 6 7 8 9 9 9 10 10 11 12 12 10 11 11 11 10 10 10 12 15 12 13 13 9 4 11 26 19 10
31 31 31 29 27 26 25 24 22 19 18 16 14 13 11 10 9 8 7 7 7 7 8 10 9 11 9 9 9 12 12 13 13 11 12 12 17 11 14 15 16 6 14 25 26 17 9
33 35 34 34 33 31 29 28 26 25 23 21 20 18 17 15 13 11 10 10 8 8 11 8 6 9 12 10 13 12 15 14 13 13 14 11 12 15 19 17 15 12 18 23 16 17 15
32 35 38 36 36 36 35 33 31 29 27 25 24 23 22 20 18 17 16 15 13 12 14 9 9 11 10 12 13 14 13 13 15 17 18 17 18 18 18 16 15 20 23 23 20 15 16
27 31 35 39 38 36 37 37 36 33 31 29 28 26 25 24 23 21 20 19 17 16 20 19 16 13 13 14 16 17 16 17 17 17 17 18 18 20 22 22 23 25 21 20 17 14 17
24 27 31 35 40 39 37 37 37 37 36 34 32 30 29 28 27 26 25 23 20 17 10 24 18 17 17 18 19 19 20 19 19 20 21 20 18 16 21 25 23 23 19 20 22 19 17
24 26 28 30 34 40 40 38 36 36 36 36 36 34 33 32 31 30 29 26 22 17 25 28 21 21 20 20 22 23 23 23 23 24 24 24 24 18 17 21 21 20 23 19 23 24 27
24 26 29 29 29 32 39 41 39 36 34 33 34 35 36 35 35 35 34 30 29 32 32 28 23 19 14 15 24 24 24 24 24 24 24 23 27 24 22 20 25 29 26 24 19 23 27
25 26 28 29 29 28 31 38 42 39 37 35 34 34 32 35 36 37 36 32 33 34 35 30 30 27 26 20 18 17 13 15 19 20 23 24 26 24 21 22 24 22 29 26 21 26 23
23 23 25 27 25 25 26 30 34 43 40 38 36 37 33 34 35 34 33 32 34 38 40 34 34 34 35 32 33 34 23 12 22 19 20 16 24 28 27 21 22 24 26 23 26 24 21
20 21 21 23 23 22 22 24 28 31 36 42 41 40 35 36 35 33 31 33 34 36 38 33 33 34 34 35 36 35 30 29 25 34 31 26 19 21 21 21 16 23 23 26 23 24 29
16 17 19 20 23 24 23 21 22 26 28 30 33 36 35 38 36 38 38 36 36 39 36 33 35 35 36 36 36 35 34 32 25 38 38 34 33 29 20 20 19 29 27 32 25 27 24
15 15 17 18 19 21 22 23 21 23 25 26 28 31 37 30 31 34 36 38 39 39 38 39 38 38 38 38 38 38 37 33 32 29 31 28 33 30 32 28 29 22 29 21 22 26 31
16 15 14 14 16 17 20 22 23 24 28 30 30 27 23 26 30 29 33 35 38 37 37 39 40 38 37 38 41 41 39 36 29 28 24 23 25 25 29 25 29 37 33 26 33 36 47
15 16 17 16 16 17 17 19 22 25 26 31 28 30 26 27 26 28 29 34 35 37 37 42 38 40 38 41 43 40 34 33 37 34 33 30 25 26 27 24 26 39 23 31 37 48 40
14 15 16 17 17 16 16 17 20 22 25 28 30 30 28 27 27 27 30 35 34 38 38 38 36 38 33 39 34 31 31 32 34 33 32 33 33 35 37 33 39 28 24 30 45 47 34
14 15 15 15 15 17 18 16 18 20 22 24 28 29 29 28 33 30 37 30 29 31 30 33 33 31 32 30 30 30 29 29 26 27 27 30 31 28 26 27 33 29 28 36 47 47 43
14 14 14 13 15 15 15 16 16 18 20 22 24 26 28 30 36 28 28 27 27 28 28 30 31 31 25 27 26 27 24 20 12 14 11 10 15 22 26 34 32 27 38 43 47 47 51
14 13 13 13 13 12 12 13 14 14 16 18 21 23 26 28 31 26 31 28 27 27 26 31 28 23 26 25 23 21 18 12 13 14 15 15 23 28 28 29 24 34 36 40 44 51 55
14 13 13 12 12 12 12 12 12 13 14 15 16 18 19 21 20 26 25 28 26 29 28 31 22 28 25 26 24 23 23 22 24 25 23 27 34 23 26 28 32 43 43 42 48 50 51
17 16 14 12 11 12 13 13 13 13 13 14 14 13 14 15 16 19 20 22 24 25 26 24 27 24 26 24 28 24 25 26 26 28 32 34 34 36 35 35 39 41 45 49 49 54 53
Wind_Direction
109 109 110 110 115 126 140 149 159 164 164 160 155 151 153 151 153 152 155 153 145 135 129 132 156 146 144 141 140 138 145 148 148 148 146 134 54 104 76 93 96 94 61 48 23 44 31
100 99 99 105 113 118 125 138 150 154 166 162 165 162 167 169 167 163 164 158 149 137 128 137 146 152 152 147 146 141 139 148 149 147 144 124 123 137 117 99 79 80 64 22 9 44 55
104 102 102 103 105 111 123 133 141 157 164 161 166 161 169 174 176 169 162 163 150 138 124 122 132 159 142 132 150 150 141 146 139 135 138 127 115 107 117 112 80 84 42 30 337 355 336
123 123 119 116 114 109 107 114 136 146 147 154 162 152 159 169 173 165 165 163 154 146 142 128 123 130 145 143 139 147 149 150 140 135 140 124 117 120 101 91 73 46 45 12 358 348 333
211 202 185 176 159 141 127 119 117 129 141 148 147 151 147 144 150 151 153 154 150 146 150 145 141 129 125 131 140 158 156 155 144 138 135 125 124 117 99 145 72 201 185 41 313 329 316
231 229 224 220 214 202 185 164 150 139 133 133 141 148 145 144 143 139 139 140 141 138 136 132 130 131 131 127 132 153 163 166 165 149 135 143 149 124 61 270 69 29 23 243 284 288 328
243 239 237 232 230 227 220 210 198 181 169 155 142 136 145 150 143 147 147 142 140 137 139 146 148 140 141 140 146 155 164 170 164 152 156 149 145 99 302 110 258 207 173 144 295 312 301
245 244 242 239 236 233 231 227 220 212 207 202 193 176 164 148 142 151 154 156 160 161 158 158 155 155 155 157 165 174 174 174 175 173 173 174 118 324 207 216 242 217 215 309 317 302 345
243 242 243 241 240 238 235 231 228 224 221 216 213 216 204 196 187 166 148 152 166 181 185 189 185 181 179 180 192 194 201 207 205 209 219 176 235 215 242 233 229 236 330 276 265 253 351
248 243 240 240 240 238 238 236 232 228 226 225 223 226 226 224 219 212 205 192 183 190 203 205 205 203 204 206 207 214 219 222 222 225 226 226 206 238 268 235 229 199 269 255 253 280 285
248 247 243 240 239 238 237 236 235 232 229 228 227 226 228 228 231 234 228 227 224 227 235 208 210 213 222 225 230 226 227 232 236 236 238 234 243 254 254 248 242 255 241 251 274 279 298
248 246 245 244 241 239 238 237 235 233 230 229 229 229 230 232 229 228 232 233 233 237 252 244 235 232 236 233 244 248 243 248 250 252 254 251 240 232 247 265 262 251 260 259 283 309 308
254 249 245 244 243 242 239 238 236 235 231 231 230 230 230 232 234 233 232 232 230 232 247 257 244 244 244 242 247 248 250 247 252 257 260 262 264 264 272 275 270 273 278 275 284 282 292
260 256 251 246 242 241 240 239 238 238 236 234 232 230 231 232 232 233 233 233 234 228 241 246 250 247 248 252 247 252 257 257 261 262 263 267 276 308 314 286 277 274 268 267 272 273 275
265 261 257 252 247 240 239 238 238 238 238 238 237 236 234 235 235 235 236 235 232 232 229 243 247 250 256 253 254 260 257 260 261 261 258 259 258 223 252 256 265 278 271 276 272 270 270
267 263 260 256 251 246 239 237 235 236 237 237 238 238 238 238 238 239 240 238 234 235 241 250 248 245 246 261 272 256 263 267 264 265 263 261 264 249 233 243 257 268 276 269 259 273 277
270 264 260 258 254 252 246 238 234 235 235 235 238 238 237 240 241 242 244 242 238 246 249 247 243 234 242 201 231 250 247 278 282 272 259 245 260 263 259 250 260 265 283 285 274 233 255
277 270 261 255 253 252 251 242 236 233 234 235 236 239 237 239 241 243 243 240 240 239 248 243 244 247 249 235 228 243 225 212 241 230 247 257 256 258 265 274 263 261 263 254 258 276 282
282 275 266 254 252 250 249 244 236 233 233 234 235 239 238 243 243 243 240 239 238 240 242 247 243 244 247 245 245 249 252 222 240 244 243 235 241 264 267 265 264 260 261 264 264 257 252
289 279 270 261 254 253 251 245 237 232 230 230 231 236 235 239 239 241 243 240 238 241 246 244 242 242 245 249 252 253 253 243 228 253 254 259 256 240 239 243 230 289 244 234 236 253 261
294 290 279 269 261 257 252 249 240 233 225 222 222 225 233 234 236 238 238 238 241 242 245 244 248 249 253 257 257 257 256 251 244 249 266 253 253 248 243 238 231 254 279 250 258 239 240
289 286 283 274 268 264 257 250 245 239 230 226 226 233 237 238 241 244 243 241 242 244 246 250 246 250 249 250 250 250 249 246 253 248 255 270 262 259 256 253 250 242 248 261 283 284 251
290 283 279 276 269 264 260 254 247 241 238 233 228 230 234 242 243 243 243 242 240 241 240 245 247 249 244 246 250 251 255 253 246 246 245 242 243 241 250 251 257 255 252 262 260 262 258
291 287 279 276 272 267 259 255 251 244 240 236 234 235 237 239 240 240 237 236 236 236 236 244 243 245 250 249 257 259 255 252 252 252 252 254 255 258 262 256 251 259 275 272 263 257 265
292 288 280 280 269 265 260 258 251 245 240 238 235 236 239 238 239 240 240 241 242 246 240 243 251 251 252 257 254 251 247 251 254 261 258 256 256 258 265 271 273 273 271 255 261 272 278
292 289 280 277 274 275 265 252 248 245 240 237 236 235 237 238 240 246 245 246 242 241 242 240 245 249 253 251 250 248 248 241 238 293 283 259 269 253 254 257 259 263 261 266 267 269 269
299 290 281 279 273 269 263 252 244 240 240 238 239 239 239 241 244 237 238 244 244 243 242 246 243 251 247 250 248 247 236 226 244 241 260 247 239 241 250 248 251 256 256 256 256 265 270
293 292 282 277 275 267 258 250 245 242 241 242 243 242 240 240 237 235 237 240 237 238 236 246 246 243 245 244 247 244 244 228 218 217 243 238 234 245 267 257 242 253 260 258 257 257 265
280 290 283 270 268 267 264 256 247 240 240 241 243 243 241 239 235 235 235 238 237 239 239 238 242 244 242 245 246 247 243 246 243 233 229 245 240 237 237 245 256 260 257 261 263 268 267
Height
5897 5898 5898 5898 5899 5899 5899 5900 5901 5902 5903 5904 5905 5906 5907 5908 5909 5911 5912 5913 5913 5914 5914 5915 5916 5919 5921 5923 5925 5927 5930 5933 5936 5939 5938 5940 5928 5936 5944 5951 5949 5953 5956 5955 5954 5952 5953
5900 5900 5900 5900 5901 5901 5901 5902 5903 5904 5904 5905 5906 5907 5908 5909 5910 5912 5912 5913 5914 5915 5916 5917 5918 5920 5922 5925 5927 5929 5932 5935 5937 5939 5941 5943 5945 5947 5949 5953 5953 5952 5956 5957 5955 5955 5954
5902 5903 5903 5903 5903 5903 5904 5904 5904 5905 5906 5906 5907 5909 5910 5910 5911 5912 5914 5914 5916 5917 5918 5919 5920 5922 5925 5928 5929 5931 5934 5937 5939 5940 5945 5944 5947 5949 5950 5953 5955 5953 5957 5958 5959 5957 5955
5904 5904 5905 5905 5905 5905 5906 5906 5907 5907 5907 5907 5908 5909 5910 5911 5912 5913 5914 5916 5917 5918 5920 5922 5923 5925 5927 5928 5931 5934 5936 5939 5940 5943 5946 5948 5949 5951 5953 5952 5957 5958 5959 5959 5959 5959 5957
5904 5905 5905 5906 5906 5907 5908 5908 5909 5908 5908 5909 5909 5910 5911 5912 5913 5914 5915 5917 5919 5920 5921 5925 5927 5929 5931 5932 5933 5935 5938 5941 5943 5945 5948 5949 5951 5954 5952 5949 5953 5959 5959 5963 5962 5960 5958
5903 5904 5905 5906 5906 5907 5908 5909 5909 5910 5910 5910 5911 5912 5912 5913 5914 5916 5917 5919 5920 5922 5924 5925 5927 5930 5931 5934 5936 5938 5941 5943 5946 5947 5949 5951 5953 5954 5954 5957 5962 5961 5961 5967 5966 5962 5959
5901 5902 5903 5904 5906 5906 5907 5908 5909 5910 5911 5911 5912 5913 5914 5915 5916 5917 5919 5920 5923 5925 5925 5928 5930 5932 5934 5936 5938 5940 5942 5945 5946 5949 5950 5952 5955 5955 5950 5958 5960 5962 5964 5967 5963 5960 5959
5898 5899 5900 5902 5903 5904 5906 5907 5908 5910 5911 5911 5912 5914 5915 5916 5917 5919 5920 5922 5924 5926 5928 5930 5931 5934 5936 5938 5941 5942 5944 5946 5947 5949 5950 5953 5954 5957 5958 5957 5960 5961 5964 5965 5964 5959 5957
5893 5895 5897 5898 5900 5901 5903 5904 5906 5908 5910 5911 5912 5913 5915 5917 5918 5919 5920 5922 5923 5925 5927 5929 5931 5933 5935 5938 5940 5942 5944 5945 5947 5948 5949 5950 5957 5955 5955 5957 5959 5961 5964 5965 5960 5957 5956
5886 5888 5891 5893 5895 5897 5899 5901 5903 5905 5907 5909 5911 5912 5913 5915 5918 5919 5920 5921 5923 5924 5926 5929 5930 5932 5934 5937 5939 5940 5942 5944 5945 5947 5947 5949 5953 5955 5956 5956 5956 5959 5960 5958 5956 5954 5953
5878 5881 5883 5886 5889 5891 5894 5897 5899 5902 5904 5906 5908 5910 5912 5914 5915 5917 5920 5921 5922 5923 5924 5928 5930 5931 5933 5936 5935 5938 5939 5941 5943 5944 5947 5949 5950 5952 5952 5953 5953 5955 5956 5953 5950 5950 5950
5870 5872 5875 5878 5881 5884 5887 5890 5894 5897 5900 5902 5904 5906 5908 5911 5913 5916 5917 5919 5921 5924 5922 5925 5928 5929 5931 5933 5934 5935 5938 5939 5941 5942 5943 5945 5946 5947 5948 5948 5949 5950 5948 5948 5948 5948 5949
5863 5864 5867 5870 5873 5876 5879 5882 5886 5890 5893 5896 5899 5902 5904 5907 5910 5912 5914 5917 5920 5921 5922 5924 5925 5927 5929 5931 5932 5933 5934 5936 5938 5939 5940 5941 5942 5943 5945 5945 5945 5945 5946 5946 5947 5950 5951
5857 5858 5859 5861 5864 5867 5871 5874 5877 5881 5885 5889 5893 5896 5899 5901 5904 5907 5910 5913 5917 5918 5921 5918 5922 5924 5926 5927 5928 5929 5931 5932 5934 5935 5936 5937 5940 5941 5941 5939 5940 5941 5943 5944 5942 5945 5947
5851 5852 5853 5854 5856 5858 5862 5866 5870 5873 5877 5881 5885 5888 5892 5895 5898 5901 5904 5908 5912 5913 5912 5913 5918 5919 5921 5923 5924 5924 5926 5927 5928 5930 5932 5932 5934 5939 5941 5938 5939 5938 5937 5939 5936 5938 5938
5845 5845 5846 5847 5848 5850 5852 5856 5861 5865 5869 5873 5877 5880 5884 5887 5890 5893 5897 5903 5904 5904 5906 5910 5913 5915 5918 5921 5919 5920 5920 5922 5923 5924 5925 5927 5926 5930 5932 5935 5933 5930 5933 5932 5933 5934 5931
5837 5838 5838 5839 5841 5842 5844 5847 5852 5856 5860 5865 5869 5872 5878 5879 5882 5885 5890 5895 5895 5897 5900 5904 5905 5907 5910 5914 5917 5915 5920 5921 5919 5918 5919 5921 5923 5924 5925 5927 5929 5930 5925 5924 5925 5927 5927
5830 5830 5830 5831 5833 5835 5837 5838 5842 5847 5851 5856 5860 5862 5869 5871 5875 5878 5882 5886 5887 5888 5889 5896 5897 5899 5901 5903 5905 5906 5911 5917 5915 5913 5914 5918 5917 5917 5919 5921 5923 5923 5923 5923 5924 5924 5922
5825 5824 5823 5824 5827 5829 5830 5832 5834 5837 5841 5846 5850 5853 5860 5862 5867 5870 5874 5876 5878 5880 5882 5886 5888 5890 5892 5894 5895 5897 5901 5905 5905 5903 5904 5906 5909 5911 5912 5916 5918 5919 5919 5918 5917 5918 5917
5820 5819 5819 5819 5820 5822 5824 5826 5828 5830 5833 5837 5842 5846 5851 5853 5857 5859 5863 5867 5869 5870 5873 5876 5878 5880 5883 5884 5887 5889 5891 5894 5897 5892 5895 5897 5899 5902 5905 5911 5913 5905 5908 5909 5908 5910 5911
5817 5815 5814 5814 5815 5816 5818 5820 5822 5824 5827 5831 5834 5836 5837 5847 5848 5850 5853 5856 5859 5862 5865 5866 5869 5872 5874 5876 5877 5878 5881 5884 5887 5887 5886 5889 5889 5892 5893 5896 5899 5902 5898 5897 5901 5898 5896
5813 5812 5811 5811 5811 5811 5812 5813 5816 5818 5821 5824 5827 5832 5837 5838 5841 5845 5846 5849 5851 5854 5857 5857 5860 5863 5865 5866 5866 5867 5870 5872 5876 5880 5881 5882 5882 5884 5884 5888 5890 5889 5892 5894 5889 5887 5889
5809 5808 5807 5807 5807 5807 5807 5808 5809 5812 5814 5817 5823 5825 5829 5831 5834 5837 5839 5840 5842 5844 5847 5846 5852 5852 5855 5855 5853 5856 5862 5864 5865 5868 5871 5874 5876 5877 5877 5881 5882 5875 5884 5887 5883 5876 5871
5805 5803 5803 5802 5802 5802 5803 5803 5804 5805 5808 5811 5815 5817 5821 5824 5826 5829 5829 5829 5833 5834 5837 5840 5842 5843 5847 5845 5849 5853 5853 5855 5857 5859 5862 5864 5866 5868 5867 5872 5867 5874 5879 5873 5860 5860 5859
5800 5798 5798 5797 5797 5797 5797 5798 5799 5800 5802 5804 5807 5810 5813 5816 5816 5819 5818 5823 5825 5827 5831 5832 5834 5837 5838 5840 5841 5843 5845 5847 5850 5852 5854 5856 5857 5859 5860 5861 5860 5865 5867 5861 5853 5850 5848
5795 5794 5793 5792 5792 5792 5792 5793 5794 5795 5797 5798 5801 5803 5806 5808 5806 5812 5815 5817 5819 5821 5824 5825 5827 5829 5832 5832 5834 5835 5839 5842 5847 5847 5848 5848 5849 5851 5854 5853 5852 5857 5847 5843 5842 5845 5842
5791 5790 5789 5788 5788 5787 5787 5788 5789 5790 5792 5794 5795 5797 5799 5801 5801 5806 5805 5810 5813 5815 5818 5816 5819 5824 5824 5826 5828 5830 5832 5837 5841 5844 5846 5845 5845 5845 5844 5841 5844 5838 5834 5835 5839 5835 5829
5788 5786 5785 5785 5785 5784 5784 5785 5786 5787 5788 5789 5790 5792 5793 5794 5796 5796 5800 5802 5805 5806 5809 5808 5816 5814 5818 5818 5821 5823 5824 5827 5830 5833 5832 5835 5836 5836 5836 5834 5834 5820 5824 5826 5823 5819 5819
5783 5783 5782 5781 5781 5781 5781 5782 5782 5783 5784 5785 5787 5788 5789 5790 5792 5792 5794 5796 5798 5801 5802 5805 5806 5809 5809 5812 5811 5815 5817 5818 5820 5822 5826 5826 5824 5821 5826 5823 5816 5814 5814 5814 5813 5812 5815